Location: Santiago
(33.4378°S, 70.6505°W)
Time: 08:09:00
(UTC+00:00)

ISS - Pass Details

Date: 11 February 2026
Orbit: 413 x 428 km, 51.6° (Epoch: 13 February)

Event Time Altitude Azimuth Distance (km) Brightness Sun altitude
Rises 23:52:42 0° 274° (W) 2,395 1.5 -3.7°
Reaches altitude 10° 23:55:24 10° 252° (WSW) 1,537 1.1 -4.2°
Maximum altitude 23:57:39 16° 211° (SSW) 1,219 -0.6 -4.7°
Drops below altitude 10° 23:59:55 10° 170° (S) 1,549 -0.7 -5.1°
Sets 00:02:39 0° 148° (SSE) 2,423 0.0 -5.7°
